Tracking 18032 objects as of 27-March-2017
HD Live streaming from Space Station
objects crossing your sky now

SL-12 R/B(2)

Track SL-12 R/B(2) now!


NORAD ID: 24919
Int'l Code: 1997-046D
Perigee: 8,399.9 km
Apogee: 35,989.6 km
Inclination: 14.2 °
Period: 800.8 minutes
Semi major axis: 28565 km
RCS: 29.9426 m2 (large)
Launch date: August 28, 1997
Source: Commonwealth of Independent States (former USSR) (CIS)
Launch site: TYURATAM MISSILE AND SPACE COMPLEX (TTMTR)

Note: This is a ROCKET BODY
Your satellite tracking list
Your tracking list is empty





NASA's NSSDC Master Catalog

Two Line Element Set (TLE):
1 24919U 97046D   17084.43496663 -.00000127 +00000-0 +00000-0 0  9993
2 24919 014.2341 064.7097 4829166 149.5957 004.4060 01.79819096128512
Source of the keplerian elements: AFSPC